This is the latest recevied weather packets stored in our database for station/object KF0WJA. If no packets are shown the sender has not sent any weather packets the latest 10 day(s).
| Time | Temp. | Humidity | Pressure | Rain* | Wind** | Luminosity | Snow |
|---|---|---|---|---|---|---|---|
| 1788483830 | 31.67° C | 54% | 1013.1 hPa | 0 mm | - | 0 W/m² | - |
| 1788483524 | 32.22° C | 54% | 1013 hPa | 0 mm | - | 0 W/m² | - |
| 1788483220 | 32.22° C | 53% | 1013.1 hPa | 0 mm | - | 2 W/m² | - |
| 1788482915 | 32.22° C | 52% | 1013 hPa | 0 mm | - | 5 W/m² | - |
| 1788482611 | 32.78° C | 52% | 1013.1 hPa | 0 mm | - | 8 W/m² | - |
| 1788482312 | 32.78° C | 51% | 1013.1 hPa | 0 mm | - | 13 W/m² | - |
| 1788482008 | 33.33° C | 50% | 1013 hPa | 0 mm | - | 17 W/m² | - |
| 1788481702 | 33.33° C | 49% | 1013 hPa | 0 mm | - | 23 W/m² | - |
| 1788481399 | 33.89° C | 48% | 1012.7 hPa | 0 mm | - | 26 W/m² | - |
| 1788481098 | 33.89° C | 47% | 1013 hPa | 0 mm | - | 35 W/m² | - |
| 1788480793 | 33.89° C | 47% | 1012.8 hPa | 0 mm | - | 43 W/m² | - |
| 1788480488 | 34.44° C | 46% | 1012.6 hPa | 0 mm | - | 53 W/m² | - |
| 1788480188 | 34.44° C | 46% | 1012.6 hPa | 0 mm | - | 65 W/m² | - |
| 1788479882 | 35° C | 45% | 1012.5 hPa | 0 mm | - | 74 W/m² | - |
| 1788479579 | 35° C | 44% | 1012.6 hPa | 0 mm | - | 90 W/m² | - |
| 1788479277 | 35° C | 44% | 1012.7 hPa | 0 mm | - | 104 W/m² | - |
| 1788478974 | 35° C | 43% | 1012.6 hPa | 0 mm | - | 128 W/m² | - |
| 1788478670 | 35° C | 42% | 1012.7 hPa | 0 mm | - | 141 W/m² | - |
| 1788478366 | 35.56° C | 43% | 1012.7 hPa | 0 mm | - | 154 W/m² | - |
| 1788478064 | 35.56° C | 41% | 1012.6 hPa | 0 mm | - | 167 W/m² | - |
| 1788477761 | 35.56° C | 41% | 1012.7 hPa | 0 mm | - | 178 W/m² | - |
| 1788477459 | 35.56° C | 41% | 1012.4 hPa | 0 mm | - | 201 W/m² | - |
| 1788477155 | 35.56° C | 41% | 1012.6 hPa | 0 mm | - | 217 W/m² | - |
| 1788476851 | 36.11° C | 41% | 1012.3 hPa | 0 mm | - | 235 W/m² | - |
| 1788476545 | 36.11° C | 41% | 1012.7 hPa | 0 mm | - | 248 W/m² | - |
* Rain latest hour (hover to see other rain measurements)
** Current wind speed in m/s (hover to see current wind gust speed)